Regional Weather Roundup
Issued by NWS

Home | Current Version | Previous Version | Text Only | Print | Product List | Glossary Off
Versions: 1 2 3 4 5 6 7 8 9 10 11 12 13 14 15 16 17 18 19 20 21 22 23 24 25 26 27 28 29 30 31 32 33 34 35 36 37 38 39 40 41 42 43 44 45 46 47 48 49 50

000
ASUS43 KFSD 250210
RWRSD

WEATHER ROUNDUP FOR SOUTH DAKOTA
NATIONAL WEATHER SERVICE SIOUX FALLS SD
900 PM CDT THU APR 24 2014

NOTE: "FAIR" INDICATES FEW OR NO CLOUDS BELOW 12,000 FEET WITH NO
SIGNIFICANT WEATHER AND/OR OBSTRUCTIONS TO VISIBILITY.


SDZ001>005-009-010-012>017-250300-
NORTHWEST AND NORTH CENTRAL SOUTH DAKOTA

CITY           SKY/WX    TMP DP  RH WIND       PRES   REMARKS
BUFFALO          N/A     53  25  33 NW10      29.70S
FAITH            N/A     53  27  36 NW9       29.76R
MOBRIDGE       CLEAR     43  21  41 N8        29.70R
$$

SDZ012>016-024>037-041>051-057-063-072>074-250300-
SOUTHWEST AND SOUTH CENTRAL SOUTH DAKOTA

CITY           SKY/WX    TMP DP  RH WIND       PRES   REMARKS
RAPID CTY ARPT CLOUDY    50  32  50 NE8       29.77F
PIERRE         PTCLDY    48  24  39 NW8       29.74R
CUSTER         CLOUDY    47  24  40 E8        29.82R
ELLSWORTH AFB  CLOUDY    56  28  34 E6        29.77S
PHILIP         PTCLDY    52  29  41 N7        29.77R
PINE RIDGE     PTCLDY    52  27  38 S8        29.76S
SPEARFISH      MOCLDY    50  27  40 E3        29.80R
WINNER         FAIR      58  24  27 NW5       29.78R
$$

SDZ004>011-016>023-039-040-250300-
NORTHEAST SOUTH DAKOTA

CITY           SKY/WX    TMP DP  RH WIND       PRES   REMARKS
ABERDEEN       CLEAR     49  22  34 NW7       29.70R
WATERTOWN      CLEAR     46  40  79 SW6       29.70R
SISSETON         N/A     45  42  89 CALM      29.71R
$$

SDZ017-020-022-023-036>040-048>070-250300-
SOUTHEAST SOUTH DAKOTA

CITY           SKY/WX    TMP DP  RH WIND       PRES   REMARKS
SIOUX FALLS    PTCLDY    51  31  46 NW8       29.72R
HURON          CLEAR     49  20  31 NW7       29.72R
CHAMBERLAIN      N/A     56  23  27 NW6       29.76R
MITCHELL       CLEAR     55  21  26 NW5       29.75R
YANKTON        CLEAR     57  27  30 W8        29.76R
$$

ABBREVIATIONS USED IN REMARKS
   TC - TEMPERATURE IN CELSIUS
  WCI - WIND CHILL INDEX
   HX - HEAT INDEX
  VSB - VISIBILITY




USA.gov is the U.S. government's official web portal to all federal, state and local government web resources and services.